Location: Bathurst
(33.4193°S, 149.5775°E)
Time: 19:49:47
(UTC+10:00)

Tiros 1 despin weight - Visible Passes

Search period start: 15 June 2021 00:00
Search period end: 25 June 2021 00:00
Orbit: 593 x 641 km, 48.2° (Epoch: 14 June)

Date Brightness Start Highest point End Pass type
(mag) Time Alt. Az. Time Alt. Az. Time Alt. Az.
15 Jun ? 18:25:07 10° NW 18:29:47 68° NE 18:31:30 38° ESE visible
15 Jun ? 20:07:40 10° W 20:08:34 14° WSW 20:08:34 14° WSW visible
16 Jun ? 18:41:25 10° WNW 18:46:05 61° SW 18:47:24 43° SSE visible
17 Jun ? 18:58:13 10° W 19:02:32 35° SSW 19:03:13 33° S visible
18 Jun ? 17:32:24 10° NW 17:37:06 90° NNE 17:41:52 10° SE visible
18 Jun ? 19:15:26 10° WSW 19:18:59 23° SSW 19:18:59 23° SSW visible
19 Jun ? 17:48:55 10° WNW 17:53:29 48° SSW 17:57:39 12° SE visible
19 Jun ? 19:32:54 10° SW 19:34:41 15° SSW 19:34:41 15° SSW visible
20 Jun ? 18:05:54 10° W 18:10:00 29° SSW 18:13:19 14° SSE visible
21 Jun ? 18:23:14 10° WSW 18:26:41 20° SSW 18:28:57 15° SSE visible
22 Jun ? 18:40:44 10° SW 18:43:30 15° SSW 18:44:34 14° S visible
23 Jun ? 18:58:07 10° SSW 19:00:10 13° S 19:00:10 13° S visible
24 Jun ? 17:31:04 10° WSW 17:34:14 17° SSW 17:37:25 10° SSE visible
24 Jun ? 19:14:58 10° SSW 19:15:46 12° SSW 19:15:46 12° SSW visible
